FW7537 Weather Reports


time (UTC)temp
C
wind
direction
speed
KPH
gust
KPH
rain 1hr
cm
rain 24hr
cm
rain mn
cm
humidity
%
barometer
mb
20260506091551 5 141 0.0 0.0 0.00 0.84 0.00 92 1014.9
20260506090048 5 141 0.0 0.0 0.00 0.99 0.00 92 1014.7
20260506084615 5 141 0.0 0.0 0.00 0.99 0.00 92 1014.6
20260506083046 5 141 0.0 0.0 0.00 0.99 0.00 92 1014.5
20260506081552 5 141 0.0 3.2 0.00 0.99 0.00 91 1014.4
20260506073039 5 141 0.0 0.0 0.00 1.14 0.00 90 1014.0
20260506071537 6 141 0.0 0.0 0.00 1.14 0.00 90 1013.9
20260506061530 6 141 0.0 0.0 0.00 1.24 1.14 88 1013.3
20260506044521 7 141 0.0 0.0 0.00 1.42 1.14 86 1012.8
20260506043019 7 141 0.0 1.6 0.00 1.42 1.14 87 1012.6
20260506041520 7 141 0.0 0.0 0.00 1.42 1.14 86 1012.6
20260506040017 7 141 0.0 0.0 0.00 1.50 1.14 85 1012.6
20260506034516 7 141 0.0 3.2 0.00 1.50 1.14 84 1012.5
20260506033014 8 141 0.0 3.2 0.00 1.50 1.14 83 1012.4
20260506031512 8 141 0.0 1.6 0.00 1.50 1.14 82 1011.9
20260506030012 8 141 0.0 3.2 0.00 1.65 1.14 81 1011.5
20260506024511 9 141 0.0 4.8 0.00 1.65 1.14 79 1011.1
20260506023011 10 141 0.0 4.8 0.00 1.65 1.14 79 1011.0
20260506021510 10 140 1.6 6.4 0.00 1.65 1.14 79 1011.0
20260506020009 10 196 1.6 4.8 0.00 1.75 1.14 78 1010.8
20260506014509 9 196 1.6 3.2 0.00 1.75 1.14 76 1010.7
20260506013010 9 196 0.0 3.2 0.00 1.75 1.14 76 1010.6
20260506011508 10 196 0.0 0.0 0.00 1.75 1.14 75 1010.7
20260506010010 10 196 0.0 0.0 0.00 1.75 1.14 73 1010.5
20260506004511 12 196 0.0 4.8 0.00 1.75 1.14 69 1010.6
20260506003007 13 196 0.0 1.6 0.00 1.75 1.14 67 1010.8
20260506001505 13 197 0.0 3.2 0.00 1.75 1.14 62 1011.0
20260506000005 12 214 3.2 6.4 0.00 1.75 1.14 62 1010.9
20260505234504 12 199 1.6 6.4 0.00 1.75 1.14 61 1010.9
20260505233002 12 259 4.8 9.7 0.00 1.75 1.14 60 1011.0
20260505231502 12 251 3.2 12.9 0.00 1.75 1.14 62 1011.1
20260505230001 12 232 3.2 11.3 0.00 1.75 1.14 66 1011.2
20260505224502 12 250 3.2 8.0 0.00 1.75 1.14 62 1011.2
20260505223100 12 254 4.8 11.3 0.00 1.75 1.14 62 1011.4
20260505221603 12 254 6.4 14.5 0.00 1.75 1.14 66 1011.5
20260505214600 12 256 8.0 14.5 0.00 1.75 1.14 63 1012.0
20260505213058 11 292 8.0 14.5 0.00 1.75 1.14 66 1012.0
20260505211556 11 260 4.8 12.9 0.00 1.75 1.14 68 1012.0
20260505210055 11 248 6.4 12.9 0.00 1.83 1.14 69 1011.9
20260505204555 12 250 6.4 12.9 0.00 1.83 1.14 66 1011.9
20260505203117 13 269 3.2 11.3 0.00 1.83 1.14 65 1011.9
20260505201600 12 279 1.6 6.4 0.00 1.83 1.14 70 1011.9
20260505200052 10 269 3.2 14.5 0.03 1.83 1.14 77 1011.9
20260505194543 9 290 11.3 16.1 0.03 1.83 1.14 77 1011.9
20260505193038 8 279 8.0 12.9 0.03 1.83 1.14 80 1011.8
20260505191536 8 288 6.4 14.5 0.03 1.83 1.14 83 1011.8
20260505190035 8 286 8.0 14.5 0.00 1.83 1.12 84 1011.9
20260505184535 7 286 9.7 12.9 0.00 1.83 1.12 86 1011.6
20260505183028 7 295 6.4 9.7 0.00 1.83 1.12 89 1011.7
20260505181530 6 282 4.8 14.5 0.00 1.83 1.12 87 1011.8
20260505180023 7 285 8.0 14.5 0.00 1.96 1.12 87 1011.5
20260505174528 6 121 0.0 3.2 0.00 1.96 1.12 86 1011.3
20260505173016 5 169 0.0 3.2 0.00 1.96 1.12 91 1011.1
20260505171514 5 169 0.0 3.2 0.03 1.96 1.12 90 1010.9
20260505170018 5 169 0.0 3.2 0.05 1.96 1.12 89 1010.8
20260505164510 6 96 0.0 3.2 0.08 1.96 1.12 86 1010.6
20260505163012 6 94 0.0 3.2 0.10 1.96 1.12 92 1010.5
20260505161505 6 90 0.0 3.2 0.10 1.93 1.09 92 1010.4
20260505153104 3 55 0.0 0.0 0.10 1.85 1.02 95 1010.3
20260505151603 3 30 0.0 3.2 0.08 1.83 0.99 92 1010.2
20260505124540 1 333 0.0 1.6 0.05 1.68 0.76 93 1008.7
20260505123039 1 333 0.0 0.0 0.08 1.68 0.76 94 1008.4
20260505121541 1 333 0.0 3.2 0.08 1.65 0.71 95 1008.5
20260505120043 1 333 0.0 0.0 0.05 1.63 0.71 94 1008.2
20260505114539 1 333 0.0 3.2 0.08 1.63 0.71 94 1008.3
20260505113040 1 333 0.0 0.0 0.08 1.60 0.69 93 1008.4
20260505111541 1 333 0.0 0.0 0.08 1.57 0.66 93 1008.5
20260505101534 0 330 1.6 4.8 0.20 1.50 0.58 92 1008.5
20260505100030 1 330 0.0 3.2 0.20 1.42 0.51 92 1008.8
20260505094529 1 330 0.0 1.6 0.23 1.40 0.48 94 1008.6
20260505093031 0 330 0.0 1.6 0.20 1.32 0.41 92 1008.8